ABR829 KLAX-EGAA

Flight info

Callsign ABR829
Flight time N/A
Altitude 29000
Route OSHNN1 BEALE Q842 WINEN/N0499F310 DCT DTA DCT LOFOG DCT BXTER DCT BOY DCT HERKA DCT KIXCO DCT HASOS DCT GOVAB DCT IKLIN DCT KAIIN/N0487F330 DCT 57N090W DCT DUGNO DCT TEFFO/M085F330 DCT EMBOK DCT 63N050W/M085F350 62N040W 61N030W 59N020W DCT SUNOT/N0487F350 DCT KESIX DCT LUTOV DCT NIPIT DCT TUGSI DCT DEGOS DCT BELZU
Aircraft B742/H-SDE3FGHIM1M2RWXY/LB1

Departure

Time 2026-04-20 03:41
Airport Los Angeles International Airport (KLAX)

Arrival

Time N/A
Airport Belfast International Airport (EGAA)
Time Latitude Longitude Altitude Speed Heading
2026-04-20 03:01 33.93378 -118.39159 108 ft 0 kts 180°
2026-04-20 03:28 33.93380 -118.39159 108 ft 1 kts 180°
2026-04-20 03:28 33.93409 -118.39159 108 ft 2 kts 180°
2026-04-20 03:29 33.93424 -118.39159 108 ft 2 kts 180°
2026-04-20 03:29 33.93438 -118.39159 108 ft 2 kts 180°
2026-04-20 03:29 33.93452 -118.39159 108 ft 2 kts 180°
2026-04-20 03:29 33.93467 -118.39159 108 ft 2 kts 180°
2026-04-20 03:30 33.93482 -118.39159 108 ft 2 kts 180°
2026-04-20 03:30 33.93496 -118.39162 108 ft 2 kts 157°
2026-04-20 03:30 33.93508 -118.39171 108 ft 2 kts 133°
2026-04-20 03:30 33.93515 -118.39185 108 ft 2 kts 109°
2026-04-20 03:31 33.93517 -118.39201 108 ft 2 kts 85°
2026-04-20 03:31 33.93515 -118.39220 108 ft 2 kts 81°
2026-04-20 03:31 33.93513 -118.39237 108 ft 1 kts 83°
2026-04-20 03:31 33.93513 -118.39239 108 ft 0 kts 83°
2026-04-20 03:35 33.93514 -118.39231 108 ft 2 kts 83°
2026-04-20 03:35 33.93518 -118.39190 108 ft 8 kts 83°
2026-04-20 03:35 33.93530 -118.39099 108 ft 13 kts 81°
2026-04-20 03:35 33.93544 -118.38965 107 ft 17 kts 83°
2026-04-20 03:36 33.93559 -118.38821 105 ft 17 kts 83°
2026-04-20 03:36 33.93572 -118.38684 105 ft 15 kts 83°
2026-04-20 03:36 33.93583 -118.38562 105 ft 13 kts 84°
2026-04-20 03:36 33.93590 -118.38487 105 ft 12 kts 84°
2026-04-20 03:37 33.93601 -118.38383 103 ft 12 kts 83°
2026-04-20 03:37 33.93658 -118.38284 102 ft 11 kts
2026-04-20 03:37 33.93710 -118.38288 102 ft 11 kts 353°
2026-04-20 03:37 33.93821 -118.38306 102 ft 12 kts 353°
2026-04-20 03:38 33.93881 -118.38315 102 ft 13 kts 353°
2026-04-20 03:38 33.94004 -118.38332 102 ft 11 kts
2026-04-20 03:38 33.94053 -118.38285 102 ft 8 kts 72°
2026-04-20 03:38 33.94061 -118.38214 102 ft 9 kts 84°
2026-04-20 03:39 33.94070 -118.38127 102 ft 10 kts 83°
2026-04-20 03:39 33.94073 -118.38038 102 ft 10 kts 108°
2026-04-20 03:39 33.94030 -118.38004 102 ft 7 kts 171°
2026-04-20 03:39 33.93993 -118.38011 102 ft 4 kts 222°
2026-04-20 03:40 33.93980 -118.38042 102 ft 3 kts 263°
2026-04-20 03:40 33.93978 -118.38071 102 ft 6 kts 263°
2026-04-20 03:40 33.93957 -118.38273 102 ft 49 kts 264°
2026-04-20 03:40 33.93893 -118.38913 105 ft 105 kts 263°
2026-04-20 03:41 33.93779 -118.40018 119 ft 157 kts 263°
2026-04-20 03:41 33.93626 -118.41486 168 ft 195 kts 263°
2026-04-20 03:41 33.93463 -118.43120 663 ft 197 kts 264°
2026-04-20 03:41 33.93306 -118.44776 1269 ft 200 kts 264°
2026-04-20 03:42 33.93073 -118.46416 1803 ft 205 kts 253°
2026-04-20 03:42 33.92571 -118.48074 2186 ft 215 kts 249°
2026-04-20 03:42 33.92026 -118.49754 2485 ft 219 kts 249°
2026-04-20 03:42 33.91456 -118.51491 2792 ft 225 kts 248°
2026-04-20 03:43 33.90866 -118.53258 3019 ft 234 kts 248°
2026-04-20 03:43 33.90252 -118.55096 3257 ft 240 kts 248°
2026-04-20 03:43 33.89628 -118.56972 3498 ft 241 kts 248°
2026-04-20 03:43 33.89010 -118.58842 3737 ft 243 kts 248°
2026-04-20 03:44 33.88381 -118.60748 3979 ft 245 kts 248°
2026-04-20 03:44 33.87750 -118.62673 4159 ft 251 kts 248°
2026-04-20 03:44 33.87115 -118.64628 4327 ft 257 kts 248°
2026-04-20 03:44 33.86459 -118.66655 4531 ft 263 kts 248°
2026-04-20 03:45 33.85793 -118.68717 4809 ft 269 kts 248°
2026-04-20 03:45 33.84805 -118.70628 5123 ft 270 kts 219°
2026-04-20 03:45 33.83179 -118.71664 5419 ft 271 kts 189°
2026-04-20 03:45 33.81301 -118.71554 5676 ft 275 kts 159°
2026-04-20 03:46 33.79694 -118.70281 5937 ft 282 kts 129°
2026-04-20 03:46 33.78808 -118.68178 6194 ft 291 kts 101°
2026-04-20 03:46 33.78834 -118.65745 6457 ft 301 kts 78°
2026-04-20 03:46 33.79599 -118.63377 6763 ft 310 kts 59°
2026-04-20 03:47 33.80851 -118.61241 7124 ft 317 kts 53°
2026-04-20 03:47 33.82262 -118.59151 7502 ft 323 kts 51°
2026-04-20 03:47 33.83711 -118.57083 7874 ft 329 kts 51°
2026-04-20 03:47 33.85219 -118.54942 8253 ft 334 kts 51°
2026-04-20 03:48 33.86713 -118.52818 8622 ft 339 kts 51°
2026-04-20 03:48 33.88232 -118.50652 8995 ft 343 kts 51°
2026-04-20 03:48 33.89784 -118.48437 9370 ft 347 kts 51°
2026-04-20 03:48 33.91353 -118.46195 9746 ft 351 kts 51°
2026-04-20 03:49 33.92884 -118.43922 10116 ft 355 kts 55°
2026-04-20 03:49 33.94325 -118.41518 10487 ft 359 kts 57°
2026-04-20 03:49 33.95754 -118.39017 10863 ft 363 kts 58°
2026-04-20 03:49 33.97170 -118.36510 11233 ft 367 kts 58°
2026-04-20 03:50 33.98608 -118.33963 11606 ft 371 kts 58°
2026-04-20 03:50 34.00057 -118.31373 12041 ft 373 kts 59°
2026-04-20 03:50 34.01514 -118.28773 12418 ft 376 kts 58°
2026-04-20 03:50 34.02976 -118.26181 12790 ft 379 kts 58°
2026-04-20 03:51 34.04476 -118.23533 13173 ft 381 kts 58°
2026-04-20 03:51 34.05962 -118.20912 13550 ft 383 kts 58°
2026-04-20 03:51 34.07473 -118.18246 13930 ft 385 kts 58°
2026-04-20 03:51 34.08976 -118.15591 14307 ft 386 kts 58°
2026-04-20 03:52 34.10495 -118.12907 14679 ft 387 kts 58°
2026-04-20 03:52 34.12009 -118.10223 15037 ft 388 kts 58°
2026-04-20 03:52 34.13510 -118.07558 15380 ft 389 kts 58°
2026-04-20 03:52 34.15036 -118.04851 15719 ft 390 kts 58°
2026-04-20 03:53 34.16559 -118.02151 16050 ft 391 kts 58°
2026-04-20 03:53 34.18078 -117.99455 16373 ft 391 kts 58°
2026-04-20 03:53 34.19617 -117.96720 16652 ft 394 kts 58°
2026-04-20 03:53 34.21171 -117.93958 16785 ft 401 kts 58°
2026-04-20 03:54 34.22736 -117.91172 16921 ft 407 kts 57°
2026-04-20 03:54 34.24328 -117.88338 17056 ft 413 kts 57°
2026-04-20 03:54 34.25949 -117.85450 17192 ft 420 kts 57°
2026-04-20 03:54 34.27616 -117.82479 17330 ft 427 kts 57°
2026-04-20 03:55 34.29286 -117.79498 17466 ft 433 kts 57°
2026-04-20 03:55 34.30977 -117.76479 17601 ft 440 kts 57°
2026-04-20 03:55 34.32706 -117.73390 17737 ft 447 kts 57°
2026-04-20 03:55 34.34372 -117.70211 17946 ft 449 kts 63°
2026-04-20 03:56 34.35761 -117.66808 18244 ft 451 kts 68°
2026-04-20 03:56 34.36983 -117.63334 18536 ft 453 kts 69°
2026-04-20 03:56 34.38152 -117.59793 18830 ft 455 kts 70°
2026-04-20 03:56 34.39302 -117.56245 19121 ft 458 kts 70°
2026-04-20 03:57 34.40477 -117.52612 19418 ft 461 kts 70°
2026-04-20 03:57 34.41650 -117.48991 19722 ft 464 kts 70°
2026-04-20 03:57 34.42820 -117.45390 20054 ft 467 kts 70°
2026-04-20 03:57 34.44013 -117.41720 20390 ft 469 kts 69°
2026-04-20 03:58 34.45211 -117.38036 20726 ft 472 kts 69°
2026-04-20 03:58 34.46425 -117.34299 21064 ft 474 kts 70°
2026-04-20 03:58 34.47612 -117.30592 21400 ft 476 kts 70°
2026-04-20 03:58 34.48793 -117.26876 21766 ft 478 kts 70°
2026-04-20 03:59 34.49995 -117.23106 22135 ft 480 kts 70°
2026-04-20 03:59 34.51198 -117.19349 22503 ft 481 kts 70°
2026-04-20 03:59 34.52418 -117.15553 22873 ft 483 kts 69°
2026-04-20 03:59 34.53796 -117.11834 23239 ft 485 kts 61°
2026-04-20 04:00 34.55584 -117.08395 23608 ft 487 kts 54°
2026-04-20 04:00 34.57613 -117.05118 23977 ft 488 kts 51°
2026-04-20 04:00 34.59769 -117.01899 24348 ft 489 kts 50°
2026-04-20 04:00 34.61924 -116.98774 24712 ft 490 kts 50°
2026-04-20 04:01 34.64119 -116.95611 25080 ft 490 kts 49°
2026-04-20 04:01 34.66327 -116.92423 25452 ft 491 kts 49°
2026-04-20 04:01 34.68501 -116.89271 25818 ft 490 kts 49°
2026-04-20 04:01 34.70683 -116.86095 26186 ft 490 kts 49°
2026-04-20 04:02 34.72840 -116.82948 26551 ft 489 kts 49°
2026-04-20 04:02 34.75020 -116.79760 26920 ft 488 kts 49°
2026-04-20 04:02 34.77169 -116.76613 27285 ft 487 kts 49°
2026-04-20 04:02 34.79334 -116.73441 27654 ft 485 kts 49°
2026-04-20 04:03 34.81473 -116.70303 28020 ft 482 kts 49°
2026-04-20 04:03 34.83596 -116.67184 28386 ft 478 kts 49°
2026-04-20 04:03 34.85710 -116.64134 28749 ft 474 kts 47°
2026-04-20 04:03 34.87888 -116.61158 29114 ft 469 kts 46°
2026-04-20 04:04 34.90051 -116.58272 29476 ft 463 kts 46°
2026-04-20 04:04 34.92233 -116.55379 29667 ft 462 kts 46°
2026-04-20 04:04 34.94397 -116.52506 29794 ft 461 kts 46°
2026-04-20 04:04 34.96551 -116.49639 29919 ft 461 kts 46°
2026-04-20 04:05 34.98709 -116.46761 30036 ft 460 kts 46°
2026-04-20 04:05 35.00854 -116.43892 30110 ft 460 kts 46°
2026-04-20 04:05 35.05167 -116.38115 30075 ft 466 kts 46°
2026-04-20 04:06 35.07351 -116.35184 29970 ft 471 kts 46°
2026-04-20 04:06 35.09535 -116.32235 29866 ft 476 kts 47°
2026-04-20 04:06 35.11763 -116.29199 29760 ft 481 kts 47°
2026-04-20 04:06 35.13998 -116.26154 29692 ft 486 kts 47°
2026-04-20 04:07 35.18544 -116.19988 29697 ft 493 kts 47°
2026-04-20 04:07 35.23153 -116.13757 29703 ft 500 kts 47°
2026-04-20 04:08 35.27835 -116.07425 29802 ft 505 kts 47°
2026-04-20 04:08 35.32541 -116.01051 29923 ft 509 kts 47°
2026-04-20 04:09 35.37320 -115.94566 30045 ft 513 kts 47°
2026-04-20 04:09 35.42091 -115.88076 30166 ft 516 kts 47°
2026-04-20 04:10 35.46900 -115.81524 30287 ft 519 kts 47°
2026-04-20 04:10 35.51715 -115.74951 30407 ft 522 kts 47°
2026-04-20 04:11 35.54121 -115.71662 30554 ft 521 kts 47°
2026-04-20 04:11 35.56525 -115.68372 30777 ft 518 kts 47°
2026-04-20 04:11 35.58940 -115.65063 30914 ft 517 kts 47°
2026-04-20 04:11 35.61315 -115.61807 30943 ft 519 kts 47°
2026-04-20 04:12 35.66126 -115.55201 30950 ft 521 kts 47°
2026-04-20 04:12 35.70929 -115.48592 30949 ft 520 kts 47°
2026-04-20 04:13 35.75738 -115.41961 30949 ft 520 kts 47°
2026-04-20 04:13 35.80543 -115.35324 30950 ft 521 kts 47°
2026-04-20 04:14 35.85310 -115.28661 30949 ft 521 kts 49°
2026-04-20 04:14 35.90269 -115.22222 30949 ft 520 kts 40°
2026-04-20 04:15 35.96043 -115.16836 30943 ft 520 kts 35°
2026-04-20 04:15 36.01934 -115.11641 30939 ft 521 kts 35°
2026-04-20 04:16 36.07752 -115.06380 30940 ft 523 kts 36°
2026-04-20 04:16 36.13589 -115.01016 30939 ft 522 kts 36°
2026-04-20 04:17 36.19369 -114.95676 30940 ft 522 kts 36°
2026-04-20 04:17 36.25178 -114.90305 30940 ft 524 kts 36°
2026-04-20 04:18 36.31032 -114.84883 30940 ft 525 kts 36°
2026-04-20 04:18 36.36832 -114.79503 30939 ft 525 kts 36°
2026-04-20 04:19 36.42685 -114.74063 30940 ft 525 kts 36°
2026-04-20 04:19 36.48488 -114.68659 30940 ft 526 kts 36°
2026-04-20 04:20 36.54357 -114.63183 30939 ft 526 kts 36°
2026-04-20 04:20 36.60187 -114.57732 30940 ft 526 kts 36°
2026-04-20 04:21 36.65054 -114.53175 30940 ft 527 kts 36°
2026-04-20 04:21 36.71861 -114.46887 30939 ft 527 kts 33°
2026-04-20 04:22 36.78023 -114.41956 30939 ft 526 kts 31°
2026-04-20 04:22 36.84257 -114.37152 30939 ft 526 kts 31°
2026-04-20 04:23 36.90414 -114.32340 30939 ft 526 kts 32°
2026-04-20 04:23 36.96587 -114.27425 30940 ft 526 kts 32°
2026-04-20 04:24 37.02766 -114.22528 30940 ft 527 kts 32°
2026-04-20 04:24 37.08922 -114.17664 30951 ft 528 kts 32°
2026-04-20 04:25 37.15124 -114.12758 30968 ft 527 kts 32°
2026-04-20 04:25 37.21287 -114.07872 31019 ft 526 kts 32°
2026-04-20 04:26 37.27479 -114.02954 31082 ft 527 kts 32°
2026-04-20 04:26 37.33660 -113.98037 31125 ft 529 kts 32°
2026-04-20 04:27 37.39850 -113.93102 31130 ft 531 kts 32°
2026-04-20 04:27 37.46077 -113.88129 31129 ft 529 kts 32°
2026-04-20 04:28 37.52253 -113.83186 31129 ft 528 kts 32°
2026-04-20 04:28 37.58431 -113.78231 31131 ft 530 kts 32°
2026-04-20 04:29 37.64600 -113.73274 31130 ft 530 kts 32°
2026-04-20 04:29 37.70833 -113.68255 31129 ft 529 kts 32°
2026-04-20 04:30 37.77007 -113.63274 31129 ft 529 kts 32°
2026-04-20 04:30 37.83156 -113.58302 31135 ft 529 kts 32°
2026-04-20 04:31 37.89371 -113.53268 31132 ft 527 kts 32°
2026-04-20 04:31 37.95564 -113.48410 31121 ft 527 kts 29°
2026-04-20 04:32 38.01967 -113.43845 31119 ft 528 kts 28°
2026-04-20 04:32 38.08383 -113.39325 31120 ft 530 kts 28°
2026-04-20 04:33 38.14815 -113.34753 31119 ft 529 kts 29°
2026-04-20 04:33 38.21150 -113.30162 31119 ft 528 kts 30°
2026-04-20 04:34 38.27521 -113.25544 31119 ft 528 kts 29°
2026-04-20 04:34 38.33930 -113.20929 31115 ft 528 kts 29°
2026-04-20 04:35 38.40281 -113.16358 31111 ft 527 kts 29°
2026-04-20 04:35 38.46654 -113.11764 31110 ft 527 kts 29°
2026-04-20 04:36 38.55119 -113.05647 31109 ft 528 kts 29°
2026-04-20 04:37 38.62529 -113.00277 31110 ft 528 kts 29°
2026-04-20 04:37 38.68885 -112.95660 31112 ft 527 kts 29°
2026-04-20 04:38 38.75251 -112.91026 31114 ft 527 kts 29°
2026-04-20 04:38 38.81592 -112.86402 31116 ft 528 kts 29°
2026-04-20 04:39 38.87954 -112.81753 31118 ft 528 kts 29°
2026-04-20 04:39 38.94335 -112.77079 31112 ft 528 kts 29°
2026-04-20 04:40 39.00662 -112.72436 31101 ft 527 kts 29°
2026-04-20 04:40 39.06979 -112.67790 31090 ft 525 kts 29°
2026-04-20 04:41 39.13356 -112.63090 31090 ft 526 kts 29°
2026-04-20 04:41 39.18639 -112.59187 31090 ft 526 kts 29°
2026-04-20 04:42 39.21806 -112.56846 31089 ft 525 kts 29°